Change the Weather History Date:

Thursday, January 17, 2013

  Actual Average Record
Temperature  
Mean Temperature 31 °F -  
Max Temperature 32 °F 43 °F 63 °F (1991)
Min Temperature 30 °F 31 °F -6 °F (1950)
Degree Days  
Heating Degree Days 34    
Moisture  
Dew Point 25 °F    
Average Humidity 79    
Maximum Humidity 85    
Minimum Humidity 75    
Precipitation  
Precipitation 0.00 in - - ()
Sea Level Pressure  
Sea Level Pressure 30.58 in    
Wind  
Wind Speed 3 mph (ESE)    
Max Wind Speed 7 mph    
Max Gust Speed -    
Visibility 8 miles    
Events      
Averages and records for this station are not official NWS values.
T = Trace of Precipitation, MM = Missing Value Source: NWS Daily Summary

Daily Weather History Graph

Daily Weather History Graph

Search for Another Location

Airport or City:

Trip Planner

Search our weather history database for the weather conditions in past years. The results will help you decide how hot, cold, wet, or windy it might be!

Date:

Astronomy

Jan. 17, 2013 Rise Set
Actual Time 7:39 AM PST 4:50 PM PST
Civil Twilight 7:06 AM PST 5:23 PM PST
Nautical Twilight 6:30 AM PST 6:00 PM PST
Astronomical Twilight 5:54 AM PST 6:35 PM PST
Moon 10:26 AM PST (1/17) No Moon Set
Length of Visible Light 10h 16m
Length of Day
9h 10m
Waxing Crescent, 39% of the Moon is Illuminated
Jan 17
Waxing Crescent
Jan 18
First Quarter
Jan 26
Full
Feb 3
Last Quarter
Feb 9
New

Hourly Weather History & Observations

Time (PST) Temp. Windchill Dew Point Humidity Pressure Visibility Wind Dir Wind Speed Gust Speed Precip Events Conditions
12:53 AM 30.0 °F 26.5 °F 25.0 °F 82% 30.64 in 8.0 mi SE 3.5 mph - N/A   Overcast
1:53 AM 30.9 °F 27.5 °F 26.1 °F 82% 30.64 in 6.0 mi ENE 3.5 mph - N/A   Haze
2:53 AM 30.0 °F 23.2 °F 25.0 °F 82% 30.64 in 7.0 mi SE 6.9 mph - N/A   Overcast
3:53 AM 30.0 °F 26.5 °F 26.1 °F 85% 30.63 in 6.0 mi SSE 3.5 mph - N/A   Overcast
4:53 AM 30.0 °F 25.2 °F 25.0 °F 82% 30.63 in 7.0 mi SE 4.6 mph - N/A   Overcast
5:53 AM 30.0 °F 26.5 °F 25.0 °F 82% 30.63 in 6.0 mi South 3.5 mph - N/A   Haze
6:53 AM 30.0 °F - 25.0 °F 82% 30.63 in 7.0 mi Calm Calm - N/A   Overcast
7:53 AM 30.9 °F - 26.1 °F 82% 30.63 in 6.0 mi Calm Calm - N/A   Haze
8:38 AM 30.2 °F 25.4 °F 24.8 °F 80% 30.63 in 5.0 mi ESE 4.6 mph - N/A   Haze
8:53 AM 30.9 °F - 25.0 °F 79% 30.64 in 6.0 mi Calm Calm - N/A   Haze
9:53 AM 30.9 °F - 25.0 °F 79% 30.64 in 5.0 mi Calm Calm - N/A   Haze
10:53 AM 30.9 °F 26.2 °F 25.0 °F 79% 30.63 in 6.0 mi SE 4.6 mph - N/A   Haze
11:25 AM 30.2 °F 25.4 °F 24.8 °F 80% 30.60 in 7.0 mi East 4.6 mph - N/A   Overcast
11:53 AM 32.0 °F 27.5 °F 25.0 °F 75% 30.60 in 9.0 mi SE 4.6 mph - N/A   Overcast
12:53 PM 32.0 °F - 25.0 °F 75% 30.57 in 9.0 mi Calm Calm - N/A   Overcast
1:53 PM 32.0 °F 28.7 °F 25.0 °F 75% 30.56 in 7.0 mi ENE 3.5 mph - N/A   Overcast
2:53 PM 32.0 °F - 25.0 °F 75% 30.54 in 8.0 mi Calm Calm - N/A   Overcast
3:53 PM 32.0 °F - 25.0 °F 75% 30.53 in 8.0 mi Calm Calm - N/A   Overcast
4:53 PM 30.9 °F - 25.0 °F 79% 30.52 in 9.0 mi Calm Calm - N/A   Overcast
5:53 PM 32.0 °F - 25.0 °F 75% 30.52 in 10.0 mi Calm Calm - N/A   Overcast
6:53 PM 30.9 °F - 26.1 °F 82% 30.53 in 8.0 mi Calm Calm - N/A   Overcast
7:53 PM 30.9 °F - 25.0 °F 79% 30.53 in 9.0 mi Calm Calm - N/A   Overcast
8:53 PM 30.9 °F - 25.0 °F 79% 30.53 in 9.0 mi Calm Calm - N/A   Overcast
9:53 PM 30.9 °F 27.5 °F 25.0 °F 79% 30.52 in 8.0 mi NE 3.5 mph - N/A   Overcast
10:30 PM 30.2 °F - 24.8 °F 80% 30.49 in 8.0 mi Calm Calm - N/A   Overcast
10:53 PM 30.9 °F - 25.0 °F 79% 30.50 in 9.0 mi Calm Calm - N/A   Overcast
11:53 PM 30.9 °F - 25.0 °F 79% 30.48 in 9.0 mi Calm Calm - N/A   Overcast